Location: Ajisawe
(8.4333°N, 4.3833°E)
Time: 13:12:19
(UTC+00:00)

Courier 1B Rocket - Pass Details

Date: 26 April 2021
Orbit: 920 x 1202 km, 28.3° (Epoch: 10 May)

Event Time Altitude Azimuth Distance (km) Brightness Sun altitude
Rises 20:20:56 0° 315° (NW) 3,663 8.9 -35.8°
Reaches altitude 10° 20:24:24 10° 332° (NNW) 2,763 7.9 -36.6°
Enters shadow 20:28:05 19° 6° (N) 2,242 7.0 -37.4°
Maximum altitude 20:29:02 19° 16° (NNE) 2,228 - -37.6°
Drops below altitude 10° 20:33:54 10° 60° (ENE) 2,910 - -38.7°
Sets 20:37:39 0° 77° (ENE) 3,924 - -39.5°
